Overview Statistics Trail Chart Weather Telemetry Raw packets
 

This is the latest recevied weather packets stored in our database for station/object WD7OO. If no packets are shown the sender has not sent any weather packets the latest 10 day(s).

<< 49 50 51 52 53 54 55 >>
Time Temp. Humidity Pressure Rain* Wind** Luminosity Snow
1788290434 33.89° C 70% 1016.3 hPa 0 mm - 691 W/m² -
1788290130 33.33° C 70% 1016.2 hPa 0 mm - 390 W/m² -
1788289826 33.33° C 70% 1016.2 hPa 0 mm - 620 W/m² -
1788289521 32.78° C 73% 1016.3 hPa 0 mm - 711 W/m² -
1788289220 33.33° C 72% 1016.5 hPa 0 mm - 662 W/m² -
1788288919 33.33° C 70% 1016.7 hPa 0 mm - 652 W/m² -
1788288618 33.33° C 71% 1016.4 hPa 0 mm - 640 W/m² -
1788288314 33.33° C 72% 1016.6 hPa 0 mm - 676 W/m² -
1788288009 32.78° C 72% 1016.6 hPa 0 mm - 641 W/m² -
1788287703 32.78° C 73% 1016.1 hPa 0 mm - 648 W/m² -
1788287399 32.22° C 76% 1016.4 hPa 0 mm - 650 W/m² -
1788287094 32.22° C 75% 1016.3 hPa 0 mm - 680 W/m² -
1788286788 32.22° C 74% 1016.5 hPa 0 mm - 707 W/m² -
1788286483 32.22° C 77% 1016.4 hPa 0 mm - 633 W/m² -
1788286182 32.22° C 78% 1016.5 hPa 0 mm - 236 W/m² -
1788285876 32.22° C 75% 1016.3 hPa 0 mm - 288 W/m² -
1788285574 32.78° C 72% 1016.4 hPa 0 mm - 379 W/m² -
1788285270 32.22° C 74% 1016.2 hPa 0 mm - 797 W/m² -
1788284964 32.22° C 73% 1016.2 hPa 0 mm - 682 W/m² -
1788284660 31.67° C 75% 1016.5 hPa 0 mm - 646 W/m² -
1788284356 32.22° C 73% 1016.6 hPa 0 mm - 704 W/m² -
1788284050 31.67° C 73% 1016.5 hPa 0 mm - 733 W/m² -
1788283747 31.67° C 74% 1016.5 hPa 0 mm - 362 W/m² -
1788283441 31.67° C 76% 1016.5 hPa 0 mm - 481 W/m² -
1788283140 31.67° C 75% 1016.2 hPa 0 mm - 720 W/m² -

* Rain latest hour (hover to see other rain measurements)
** Current wind speed in m/s (hover to see current wind gust speed)